�������l�o���
Date,Time,MP-1(��Sv/h),MP-2(��Sv/h),MP-3(��Sv/h),MP-4(��Sv/h),MP-5(��Sv/h),MP-6(��Sv/h),MP-7(��Sv/h),MP-8(��Sv/h),����,����(m/s),���J
2020/09/25,00:00,0.662,0.938,0.602,1.166,0.834,0.383,0.672,0.630,�k�k��,10.8,��
2020/09/25,00:10,0.662,0.938,0.602,1.165,0.834,0.383,0.670,0.631,�k�k��,11.3,��
2020/09/25,00:20,0.662,0.939,0.601,1.166,0.834,0.382,0.672,0.632,�k�k��,10.3,��
2020/09/25,00:30,0.662,0.937,0.602,1.164,0.834,0.383,0.671,0.630,�k�k��,9.4,�L
2020/09/25,00:40,0.660,0.937,0.602,1.166,0.833,0.383,0.672,0.632,�k�k��,9.4,�L
2020/09/25,00:50,0.662,0.938,0.603,1.167,0.833,0.385,0.672,0.631,�k��,10.9,�L
2020/09/25,01:00,0.661,0.938,0.604,1.165,0.833,0.384,0.672,0.632,�k��,11.7,��
2020/09/25,01:10,0.663,0.939,0.602,1.167,0.835,0.383,0.673,0.633,�k��,13.5,��
2020/09/25,01:20,0.662,0.941,0.604,1.168,0.833,0.383,0.672,0.632,�k��,11.8,��
2020/09/25,01:30,0.663,0.938,0.604,1.166,0.833,0.384,0.673,0.631,�k��,11.3,�L
2020/09/25,01:40,0.663,0.940,0.602,1.167,0.836,0.384,0.673,0.632,�k��,10.7,��
2020/09/25,01:50,0.663,0.940,0.603,1.169,0.835,0.383,0.673,0.633,�k��,13.9,�L
2020/09/25,02:00,0.664,0.938,0.601,1.167,0.836,0.383,0.673,0.632,�k��,13.5,�L
2020/09/25,02:10,0.663,0.939,0.603,1.171,0.836,0.383,0.673,0.631,�k��,13.1,��
2020/09/25,02:20,0.663,0.940,0.603,1.169,0.836,0.383,0.673,0.631,�k��,13.3,�L
2020/09/25,02:30,0.663,0.938,0.604,1.169,0.836,0.382,0.673,0.630,�k��,13.0,��
2020/09/25,02:40,0.665,0.937,0.601,1.169,0.836,0.383,0.672,0.632,�k��,12.4,�L
2020/09/25,02:50,0.664,0.938,0.600,1.168,0.835,0.382,0.672,0.633,�k�k��,13.8,�L
2020/09/25,03:00,0.664,0.939,0.601,1.168,0.838,0.381,0.672,0.632,�k�k��,13.8,�L
2020/09/25,03:10,0.664,0.940,0.603,1.169,0.838,0.383,0.672,0.633,�k�k��,12.2,�L
2020/09/25,03:20,0.663,0.940,0.603,1.168,0.837,0.383,0.673,0.632,�k�k��,12.7,�L
2020/09/25,03:30,0.664,0.940,0.601,1.169,0.838,0.383,0.672,0.631,�k�k��,12.4,�L
2020/09/25,03:40,0.663,0.939,0.602,1.169,0.835,0.385,0.672,0.632,�k�k��,12.7,�L
2020/09/25,03:50,0.663,0.937,0.601,1.170,0.836,0.384,0.672,0.632,�k�k��,12.7,�L
2020/09/25,04:00,0.661,0.930,0.598,1.165,0.831,0.384,0.672,0.633,�k�k��,12.5,�L
2020/09/25,04:10,0.662,0.932,0.599,1.165,0.831,0.383,0.673,0.631,�k��,13.3,�L
2020/09/25,04:20,0.662,0.933,0.599,1.164,0.833,0.384,0.672,0.632,�k��,12.4,�L
2020/09/25,04:30,0.661,0.932,0.600,1.166,0.834,0.384,0.672,0.632,�k��,12.7,�L
2020/09/25,04:40,0.661,0.931,0.599,1.166,0.833,0.382,0.672,0.633,�k�k��,13.1,��
2020/09/25,04:50,0.659,0.932,0.598,1.164,0.832,0.384,0.671,0.632,�k��,13.0,�L
2020/09/25,05:00,0.660,0.933,0.601,1.165,0.831,0.381,0.673,0.632,�k�k��,12.2,�L
2020/09/25,05:10,0.660,0.932,0.600,1.165,0.832,0.383,0.672,0.631,�k�k��,13.8,�L
2020/09/25,05:20,0.660,0.930,0.599,1.162,0.829,0.383,0.670,0.630,�k��,13.0,�L
2020/09/25,05:30,0.660,0.926,0.597,1.161,0.828,0.381,0.670,0.630,�k��,13.0,�L
2020/09/25,05:40,0.657,0.924,0.597,1.163,0.826,0.382,0.672,0.630,�k�k��,11.6,�L
2020/09/25,05:50,0.658,0.923,0.595,1.154,0.823,0.381,0.668,0.627,�k��,10.6,�L
2020/09/25,06:00,0.656,0.919,0.595,1.149,0.817,0.383,0.668,0.625,�k�k��,11.6,�L
2020/09/25,06:10,0.653,0.915,0.595,1.146,0.818,0.382,0.666,0.625,�k�k��,11.3,�L
2020/09/25,06:20,0.656,0.917,0.595,1.144,0.817,0.383,0.665,0.626,�k�k��,11.7,�L
2020/09/25,06:30,0.654,0.915,0.594,1.140,0.813,0.381,0.665,0.626,�k�k��,11.4,�L
2020/09/25,06:40,0.650,0.909,0.591,1.131,0.810,0.381,0.662,0.624,�k��,12.0,�L
2020/09/25,06:50,0.651,0.909,0.592,1.129,0.811,0.381,0.662,0.624,�k�k��,12.7,�L
2020/09/25,07:00,0.651,0.912,0.593,1.127,0.810,0.380,0.660,0.624,�k��,11.3,�L
2020/09/25,07:10,0.653,0.914,0.591,1.131,0.812,0.381,0.664,0.624,�k��,11.9,�L
2020/09/25,07:20,0.651,0.910,0.593,1.127,0.813,0.379,0.663,0.622,�k�k��,11.0,�L
2020/09/25,07:30,0.651,0.912,0.592,1.127,0.811,0.381,0.661,0.623,�k��,12.5,�L
2020/09/25,07:40,0.652,0.912,0.592,1.129,0.811,0.380,0.663,0.624,�k�k��,12.8,�L
2020/09/25,07:50,0.651,0.912,0.590,1.131,0.810,0.379,0.663,0.624,�k��,13.0,�L
2020/09/25,08:00,0.651,0.911,0.591,1.129,0.812,0.379,0.663,0.623,�k��,11.9,�L
2020/09/25,08:10,0.650,0.911,0.589,1.125,0.811,0.379,0.662,0.622,�k��,11.1,�L
2020/09/25,08:20,0.649,0.906,0.589,1.127,0.805,0.379,0.662,0.622,�k��,10.8,�L
2020/09/25,08:30,0.645,0.900,0.586,1.123,0.803,0.376,0.657,0.619,�k�k��,12.1,�L
2020/09/25,08:40,0.640,0.892,0.585,1.107,0.798,0.375,0.652,0.617,-,CALM,�L
2020/09/25,08:50,0.636,0.886,0.584,1.103,0.793,0.376,0.653,0.617,�k��,11.6,�L
2020/09/25,09:00,0.639,0.889,0.582,1.104,0.793,0.376,0.654,0.617,�k�k��,11.3,�L
2020/09/25,09:10,0.638,0.889,0.585,1.103,0.794,0.377,0.652,0.618,�k��,13.5,�L
2020/09/25,09:20,0.641,0.889,0.583,1.099,0.791,0.377,0.652,0.618,�k�k��,12.0,�L
2020/09/25,09:30,0.641,0.890,0.584,1.102,0.791,0.378,0.651,0.617,�k��,12.1,�L
2020/09/25,09:40,0.642,0.889,0.584,1.101,0.793,0.376,0.653,0.619,�k��,14.1,�L
2020/09/25,09:50,0.642,0.891,0.585,1.102,0.792,0.377,0.652,0.617,�k��,15.0,�L
2020/09/25,10:00,0.646,0.893,0.587,1.103,0.795,0.376,0.652,0.618,�k��,13.0,�L
2020/09/25,10:10,0.644,0.892,0.586,1.105,0.794,0.378,0.652,0.618,�k�k��,14.9,�L
2020/09/25,10:20,0.644,0.893,0.586,1.107,0.793,0.376,0.653,0.618,�k�k��,14.1,�L
2020/09/25,10:30,0.644,0.894,0.584,1.107,0.793,0.378,0.652,0.617,�k�k��,12.1,�L
2020/09/25,10:40,0.642,0.893,0.584,1.105,0.792,0.378,0.652,0.617,�k�k��,12.0,�L
2020/09/25,10:50,0.641,0.890,0.585,1.103,0.789,0.375,0.651,0.617,�k�k��,14.4,�L
2020/09/25,11:00,0.640,0.892,0.584,1.099,0.789,0.377,0.650,0.616,�k�k��,13.3,�L
2020/09/25,11:10,0.640,0.889,0.584,1.100,0.788,0.374,0.651,0.616,�k�k��,13.0,�L
2020/09/25,11:20,0.641,0.889,0.585,1.098,0.788,0.376,0.650,0.617,�k�k��,13.5,�L
2020/09/25,11:30,0.643,0.894,0.585,1.102,0.790,0.376,0.651,0.617,�k�k��,13.0,�L
2020/09/25,11:40,0.644,0.895,0.585,1.105,0.791,0.376,0.652,0.616,�k�k��,14.1,�L
2020/09/25,11:50,0.644,0.896,0.585,1.106,0.792,0.377,0.653,0.618,�k��,15.0,�L
2020/09/25,12:00,0.645,0.897,0.586,1.106,0.792,0.377,0.650,0.616,�k�k��,14.1,�L
2020/09/25,12:10,0.643,0.895,0.586,1.108,0.792,0.376,0.654,0.617,�k�k��,14.2,�L
2020/09/25,12:20,0.643,0.896,0.584,1.106,0.791,0.377,0.652,0.617,�k�k��,15.2,�L
2020/09/25,12:30,0.640,0.894,0.582,1.104,0.788,0.374,0.651,0.614,�k��,13.8,�L
2020/09/25,12:40,0.639,0.890,0.584,1.102,0.787,0.375,0.649,0.615,�k��,12.8,�L
2020/09/25,12:50,0.638,0.889,0.582,1.100,0.788,0.375,0.651,0.614,�k�k��,14.4,�L
2020/09/25,13:00,0.639,0.892,0.584,1.100,0.786,0.375,0.650,0.614,�k�k��,13.6,�L
2020/09/25,13:10,0.640,0.889,0.584,1.100,0.784,0.374,0.649,0.615,�k��,13.0,�L
2020/09/25,13:20,0.639,0.889,0.583,1.101,0.784,0.376,0.651,0.616,�k��,14.1,�L
2020/09/25,13:30,0.638,0.889,0.580,1.096,0.782,0.375,0.647,0.614,�k�k��,11.6,�L
2020/09/25,13:40,0.635,0.881,0.580,1.092,0.778,0.374,0.648,0.613,�k�k��,13.5,�L
2020/09/25,13:50,0.633,0.879,0.575,1.089,0.775,0.372,0.646,0.611,�k��,14.9,�L
2020/09/25,14:00,0.631,0.873,0.576,1.087,0.771,0.372,0.645,0.613,�k�k��,14.4,�L
2020/09/25,14:10,0.632,0.873,0.575,1.082,0.768,0.372,0.644,0.612,�k�k��,15.2,�L
2020/09/25,14:20,0.630,0.874,0.577,1.080,0.766,0.372,0.644,0.610,�k�k��,15.2,�L
2020/09/25,14:30,0.632,0.875,0.576,1.080,0.767,0.372,0.643,0.610,�k�k��,13.8,�L
2020/09/25,14:40,0.630,0.874,0.578,1.077,0.763,0.373,0.644,0.610,�k�k��,13.3,�L
2020/09/25,14:50,0.632,0.877,0.578,1.079,0.763,0.371,0.643,0.611,�k�k��,14.1,�L
2020/09/25,15:00,0.633,0.875,0.578,1.077,0.759,0.373,0.643,0.611,�k�k��,11.0,�L
2020/09/25,15:10,0.627,0.869,0.576,1.071,0.753,0.370,0.642,0.609,�k�k��,11.9,�L
2020/09/25,15:20,0.627,0.873,0.575,1.072,0.756,0.369,0.641,0.608,�k�k��,12.8,�L
2020/09/25,15:30,0.632,0.877,0.577,1.076,0.759,0.375,0.642,0.608,�k�k��,12.4,�L
2020/09/25,15:40,0.624,0.868,0.573,1.066,0.747,0.369,0.640,0.607,�k�k��,10.5,�L
2020/09/25,15:50,0.622,0.868,0.574,1.065,0.747,0.368,0.640,0.608,�k,12.7,�L
2020/09/25,16:00,0.622,0.866,0.572,1.064,0.743,0.367,0.640,0.608,�k,12.7,�L
2020/09/25,16:10,0.623,0.866,0.572,1.062,0.739,0.367,0.638,0.607,�k,13.0,�L
2020/09/25,16:20,0.621,0.865,0.573,1.060,0.736,0.365,0.637,0.604,�k,12.2,�L
2020/09/25,16:30,0.621,0.865,0.571,1.061,0.734,0.368,0.636,0.606,�k,13.1,�L
2020/09/25,16:40,0.618,0.865,0.571,1.060,0.730,0.366,0.637,0.606,�k,11.4,�L
2020/09/25,16:50,0.620,0.863,0.571,1.063,0.728,0.367,0.636,0.606,�k,8.7,�L
2020/09/25,17:00,0.618,0.864,0.570,1.062,0.727,0.366,0.637,0.605,�k,10.7,�L
2020/09/25,17:10,0.619,0.865,0.571,1.062,0.725,0.366,0.638,0.606,�k�k��,13.0,�L
2020/09/25,17:20,0.620,0.865,0.570,1.062,0.723,0.368,0.636,0.605,�k�k��,11.9,�L
2020/09/25,17:30,0.624,0.869,0.572,1.068,0.725,0.369,0.639,0.607,�k�k��,11.6,�L
2020/09/25,17:40,0.626,0.870,0.574,1.072,0.728,0.369,0.638,0.607,�k�k��,12.5,�L
2020/09/25,17:50,0.627,0.872,0.571,1.071,0.727,0.371,0.639,0.607,�k�k��,11.9,�L
2020/09/25,18:00,0.627,0.873,0.571,1.073,0.727,0.369,0.638,0.608,�k�k��,11.7,�L
2020/09/25,18:10,0.625,0.873,0.571,1.072,0.728,0.370,0.639,0.608,�k�k��,12.2,�L
2020/09/25,18:20,0.624,0.871,0.569,1.074,0.729,0.370,0.639,0.607,�k�k��,12.7,�L
2020/09/25,18:30,0.625,0.869,0.573,1.073,0.731,0.370,0.638,0.608,�k�k��,13.3,�L
2020/09/25,18:40,0.626,0.875,0.571,1.078,0.733,0.370,0.640,0.610,�k�k��,11.9,�L
2020/09/25,18:50,0.629,0.877,0.573,1.083,0.736,0.370,0.641,0.611,�k�k��,11.6,�L
2020/09/25,19:00,0.630,0.879,0.573,1.083,0.736,0.372,0.642,0.610,�k�k��,10.9,�L
2020/09/25,19:10,0.630,0.875,0.573,1.083,0.738,0.371,0.641,0.610,�k�k��,11.6,�L
2020/09/25,19:20,0.629,0.879,0.574,1.088,0.739,0.371,0.642,0.610,�k�k��,12.8,�L
2020/09/25,19:30,0.632,0.881,0.573,1.088,0.742,0.373,0.643,0.610,�k�k��,11.9,�L
2020/09/25,19:40,0.633,0.884,0.574,1.092,0.742,0.370,0.645,0.611,�k��,12.1,�L
2020/09/25,19:50,0.632,0.884,0.573,1.092,0.745,0.372,0.644,0.612,�k�k��,11.4,�L
2020/09/25,20:00,0.633,0.886,0.575,1.095,0.746,0.371,0.646,0.610,�k�k��,11.1,�L
2020/09/25,20:10,0.632,0.882,0.576,1.096,0.743,0.372,0.644,0.611,�k�k��,12.8,�L
2020/09/25,20:20,0.631,0.881,0.574,1.094,0.742,0.371,0.642,0.610,�k�k��,11.9,�L
2020/09/25,20:30,0.630,0.878,0.575,1.092,0.746,0.373,0.645,0.613,�k�k��,12.2,�L
2020/09/25,20:40,0.631,0.882,0.577,1.091,0.747,0.372,0.645,0.612,�k�k��,11.3,�L
2020/09/25,20:50,0.632,0.882,0.577,1.096,0.750,0.373,0.645,0.613,�k��,13.6,�L
2020/09/25,21:00,0.634,0.885,0.576,1.096,0.753,0.373,0.646,0.613,�k��,12.1,��
2020/09/25,21:10,0.634,0.888,0.577,1.101,0.752,0.373,0.648,0.614,�k�k��,11.1,��
2020/09/25,21:20,0.637,0.891,0.579,1.102,0.755,0.375,0.647,0.613,�k�k��,11.6,�L
2020/09/25,21:30,0.634,0.891,0.577,1.107,0.753,0.376,0.648,0.614,�k�k��,12.4,�L
2020/09/25,21:40,0.635,0.890,0.577,1.108,0.756,0.375,0.646,0.614,�k�k��,10.7,�L
2020/09/25,21:50,0.635,0.891,0.579,1.107,0.755,0.375,0.648,0.613,�k�k��,10.3,�L
2020/09/25,22:00,0.636,0.893,0.578,1.109,0.754,0.374,0.647,0.613,�k�k��,10.5,�L
2020/09/25,22:10,0.636,0.891,0.580,1.107,0.755,0.374,0.648,0.613,�k��,9.8,�L
2020/09/25,22:20,0.636,0.894,0.580,1.109,0.758,0.375,0.647,0.613,�k��,11.8,�L
2020/09/25,22:30,0.637,0.894,0.579,1.108,0.760,0.374,0.647,0.613,�k�k��,10.5,�L
2020/09/25,22:40,0.637,0.895,0.580,1.110,0.761,0.375,0.649,0.614,�k�k��,10.2,�L
2020/09/25,22:50,0.638,0.895,0.582,1.114,0.761,0.374,0.647,0.613,�k�k��,10.8,��
2020/09/25,23:00,0.639,0.895,0.580,1.110,0.763,0.376,0.650,0.616,�k�k��,8.6,��
2020/09/25,23:10,0.638,0.895,0.582,1.112,0.763,0.375,0.650,0.618,�k�k��,10.2,��
2020/09/25,23:20,0.639,0.897,0.582,1.113,0.764,0.374,0.650,0.615,�k�k��,9.9,��
2020/09/25,23:30,0.640,0.899,0.582,1.116,0.765,0.375,0.650,0.616,�k��,7.7,�L
2020/09/25,23:40,0.641,0.901,0.583,1.114,0.765,0.376,0.650,0.616,�k�k��,10.3,�L
2020/09/25,23:50,0.640,0.900,0.582,1.117,0.765,0.375,0.651,0.617,�k�k��,9.0,�L
